Index of /20260426/WXO-DD/model_caps/3km/12/010
Name Last modified Size Description
Parent Directory -
20260426T12Z_MSC_CAPS_AbsoluteVorticity_IsbL-0250_RLatLon0.03_PT010H.grib2 2026-04-26 18:05 1.0M
20260426T12Z_MSC_CAPS_AbsoluteVorticity_IsbL-0500_RLatLon0.03_PT010H.grib2 2026-04-26 18:05 1.1M
20260426T12Z_MSC_CAPS_AbsoluteVorticity_IsbL-0700_RLatLon0.03_PT010H.grib2 2026-04-26 18:05 1.0M
20260426T12Z_MSC_CAPS_AbsoluteVorticity_IsbL-0850_RLatLon0.03_PT010H.grib2 2026-04-26 18:05 1.2M
20260426T12Z_MSC_CAPS_AbsoluteVorticity_IsbL-1000_RLatLon0.03_PT010H.grib2 2026-04-26 18:05 1.3M
20260426T12Z_MSC_CAPS_AirDensity_AGL-120m_RLatLon0.03_PT010H.grib2 2026-04-26 18:05 1.4M
20260426T12Z_MSC_CAPS_AirDensity_AGL-40m_RLatLon0.03_PT010H.grib2 2026-04-26 18:05 1.4M
20260426T12Z_MSC_CAPS_AirDensity_AGL-80m_RLatLon0.03_PT010H.grib2 2026-04-26 18:05 1.4M
20260426T12Z_MSC_CAPS_AirTemp_AGL-120m_RLatLon0.03_PT010H.grib2 2026-04-26 18:05 1.8M
20260426T12Z_MSC_CAPS_AirTemp_AGL-2m_RLatLon0.03_PT010H.grib2 2026-04-26 18:05 1.8M
20260426T12Z_MSC_CAPS_AirTemp_AGL-40m_RLatLon0.03_PT010H.grib2 2026-04-26 18:05 1.5M
20260426T12Z_MSC_CAPS_AirTemp_AGL-80m_RLatLon0.03_PT010H.grib2 2026-04-26 18:05 1.8M
20260426T12Z_MSC_CAPS_AirTemp_IsbL-0050_RLatLon0.03_PT010H.grib2 2026-04-26 18:05 694K
20260426T12Z_MSC_CAPS_AirTemp_IsbL-0100_RLatLon0.03_PT010H.grib2 2026-04-26 18:05 943K
20260426T12Z_MSC_CAPS_AirTemp_IsbL-0150_RLatLon0.03_PT010H.grib2 2026-04-26 18:05 733K
20260426T12Z_MSC_CAPS_AirTemp_IsbL-0175_RLatLon0.03_PT010H.grib2 2026-04-26 18:05 759K
20260426T12Z_MSC_CAPS_AirTemp_IsbL-0200_RLatLon0.03_PT010H.grib2 2026-04-26 18:05 778K
20260426T12Z_MSC_CAPS_AirTemp_IsbL-0225_RLatLon0.03_PT010H.grib2 2026-04-26 18:05 785K
20260426T12Z_MSC_CAPS_AirTemp_IsbL-0250_RLatLon0.03_PT010H.grib2 2026-04-26 18:05 1.0M
20260426T12Z_MSC_CAPS_AirTemp_IsbL-0275_RLatLon0.03_PT010H.grib2 2026-04-26 18:05 1.0M
20260426T12Z_MSC_CAPS_AirTemp_IsbL-0300_RLatLon0.03_PT010H.grib2 2026-04-26 18:05 1.0M
20260426T12Z_MSC_CAPS_AirTemp_IsbL-0350_RLatLon0.03_PT010H.grib2 2026-04-26 18:05 746K
20260426T12Z_MSC_CAPS_AirTemp_IsbL-0400_RLatLon0.03_PT010H.grib2 2026-04-26 18:05 747K
20260426T12Z_MSC_CAPS_AirTemp_IsbL-0450_RLatLon0.03_PT010H.grib2 2026-04-26 18:05 764K
20260426T12Z_MSC_CAPS_AirTemp_IsbL-0500_RLatLon0.03_PT010H.grib2 2026-04-26 18:05 784K
20260426T12Z_MSC_CAPS_AirTemp_IsbL-0550_RLatLon0.03_PT010H.grib2 2026-04-26 18:05 796K
20260426T12Z_MSC_CAPS_AirTemp_IsbL-0600_RLatLon0.03_PT010H.grib2 2026-04-26 18:05 808K
20260426T12Z_MSC_CAPS_AirTemp_IsbL-0650_RLatLon0.03_PT010H.grib2 2026-04-26 18:05 833K
20260426T12Z_MSC_CAPS_AirTemp_IsbL-0700_RLatLon0.03_PT010H.grib2 2026-04-26 18:05 864K
20260426T12Z_MSC_CAPS_AirTemp_IsbL-0750_RLatLon0.03_PT010H.grib2 2026-04-26 18:05 1.0M
20260426T12Z_MSC_CAPS_AirTemp_IsbL-0800_RLatLon0.03_PT010H.grib2 2026-04-26 18:05 1.0M
20260426T12Z_MSC_CAPS_AirTemp_IsbL-0850_RLatLon0.03_PT010H.grib2 2026-04-26 18:05 1.1M
20260426T12Z_MSC_CAPS_AirTemp_IsbL-0875_RLatLon0.03_PT010H.grib2 2026-04-26 18:05 1.0M
20260426T12Z_MSC_CAPS_AirTemp_IsbL-0900_RLatLon0.03_PT010H.grib2 2026-04-26 18:05 1.0M
20260426T12Z_MSC_CAPS_AirTemp_IsbL-0925_RLatLon0.03_PT010H.grib2 2026-04-26 18:05 1.0M
20260426T12Z_MSC_CAPS_AirTemp_IsbL-0950_RLatLon0.03_PT010H.grib2 2026-04-26 18:05 1.0M
20260426T12Z_MSC_CAPS_AirTemp_IsbL-0970_RLatLon0.03_PT010H.grib2 2026-04-26 18:05 1.1M
20260426T12Z_MSC_CAPS_AirTemp_IsbL-0985_RLatLon0.03_PT010H.grib2 2026-04-26 18:05 1.0M
20260426T12Z_MSC_CAPS_AirTemp_IsbL-1000_RLatLon0.03_PT010H.grib2 2026-04-26 18:05 1.0M
20260426T12Z_MSC_CAPS_AirTemp_IsbL-1015_RLatLon0.03_PT010H.grib2 2026-04-26 18:05 1.1M
20260426T12Z_MSC_CAPS_Albedo_Sfc_RLatLon0.03_PT010H.grib2 2026-04-26 18:05 2.7M
20260426T12Z_MSC_CAPS_CAPE_Sfc_RLatLon0.03_PT010H.grib2 2026-04-26 18:05 102K
20260426T12Z_MSC_CAPS_CloudWater_EAtm_RLatLon0.03_PT010H.grib2 2026-04-26 18:05 1.4M
20260426T12Z_MSC_CAPS_ConvectivePrecip-Accum_Sfc_RLatLon0.03_PT010H.grib2 2026-04-26 18:05 2.7M
20260426T12Z_MSC_CAPS_DewPointDepression_AGL-120m_RLatLon0.03_PT010H.grib2 2026-04-26 18:05 2.1M
20260426T12Z_MSC_CAPS_DewPointDepression_AGL-2m_RLatLon0.03_PT010H.grib2 2026-04-26 18:05 2.2M
20260426T12Z_MSC_CAPS_DewPointDepression_AGL-40m_RLatLon0.03_PT010H.grib2 2026-04-26 18:05 2.1M
20260426T12Z_MSC_CAPS_DewPointDepression_AGL-80m_RLatLon0.03_PT010H.grib2 2026-04-26 18:05 2.1M
20260426T12Z_MSC_CAPS_DewPointDepression_IsbL-0050_RLatLon0.03_PT010H.grib2 2026-04-26 18:05 2.3K
20260426T12Z_MSC_CAPS_DewPointDepression_IsbL-0100_RLatLon0.03_PT010H.grib2 2026-04-26 18:05 85K
20260426T12Z_MSC_CAPS_DewPointDepression_IsbL-0150_RLatLon0.03_PT010H.grib2 2026-04-26 18:05 126K
20260426T12Z_MSC_CAPS_DewPointDepression_IsbL-0175_RLatLon0.03_PT010H.grib2 2026-04-26 18:05 245K
20260426T12Z_MSC_CAPS_DewPointDepression_IsbL-0200_RLatLon0.03_PT010H.grib2 2026-04-26 18:05 404K
20260426T12Z_MSC_CAPS_DewPointDepression_IsbL-0225_RLatLon0.03_PT010H.grib2 2026-04-26 18:05 638K
20260426T12Z_MSC_CAPS_DewPointDepression_IsbL-0250_RLatLon0.03_PT010H.grib2 2026-04-26 18:05 835K
20260426T12Z_MSC_CAPS_DewPointDepression_IsbL-0275_RLatLon0.03_PT010H.grib2 2026-04-26 18:05 1.0M
20260426T12Z_MSC_CAPS_DewPointDepression_IsbL-0300_RLatLon0.03_PT010H.grib2 2026-04-26 18:05 1.0M
20260426T12Z_MSC_CAPS_DewPointDepression_IsbL-0350_RLatLon0.03_PT010H.grib2 2026-04-26 18:05 1.0M
20260426T12Z_MSC_CAPS_DewPointDepression_IsbL-0400_RLatLon0.03_PT010H.grib2 2026-04-26 18:05 1.1M
20260426T12Z_MSC_CAPS_DewPointDepression_IsbL-0450_RLatLon0.03_PT010H.grib2 2026-04-26 18:05 1.1M
20260426T12Z_MSC_CAPS_DewPointDepression_IsbL-0500_RLatLon0.03_PT010H.grib2 2026-04-26 18:05 1.1M
20260426T12Z_MSC_CAPS_DewPointDepression_IsbL-0550_RLatLon0.03_PT010H.grib2 2026-04-26 18:05 1.2M
20260426T12Z_MSC_CAPS_DewPointDepression_IsbL-0600_RLatLon0.03_PT010H.grib2 2026-04-26 18:05 1.2M
20260426T12Z_MSC_CAPS_DewPointDepression_IsbL-0650_RLatLon0.03_PT010H.grib2 2026-04-26 18:05 1.2M
20260426T12Z_MSC_CAPS_DewPointDepression_IsbL-0700_RLatLon0.03_PT010H.grib2 2026-04-26 18:05 1.2M
20260426T12Z_MSC_CAPS_DewPointDepression_IsbL-0750_RLatLon0.03_PT010H.grib2 2026-04-26 18:05 1.3M
20260426T12Z_MSC_CAPS_DewPointDepression_IsbL-0800_RLatLon0.03_PT010H.grib2 2026-04-26 18:05 1.3M
20260426T12Z_MSC_CAPS_DewPointDepression_IsbL-0850_RLatLon0.03_PT010H.grib2 2026-04-26 18:05 1.3M
20260426T12Z_MSC_CAPS_DewPointDepression_IsbL-0875_RLatLon0.03_PT010H.grib2 2026-04-26 18:05 1.3M
20260426T12Z_MSC_CAPS_DewPointDepression_IsbL-0900_RLatLon0.03_PT010H.grib2 2026-04-26 18:05 1.3M
20260426T12Z_MSC_CAPS_DewPointDepression_IsbL-0925_RLatLon0.03_PT010H.grib2 2026-04-26 18:05 1.3M
20260426T12Z_MSC_CAPS_DewPointDepression_IsbL-0950_RLatLon0.03_PT010H.grib2 2026-04-26 18:05 1.3M
20260426T12Z_MSC_CAPS_DewPointDepression_IsbL-0970_RLatLon0.03_PT010H.grib2 2026-04-26 18:05 1.3M
20260426T12Z_MSC_CAPS_DewPointDepression_IsbL-0985_RLatLon0.03_PT010H.grib2 2026-04-26 18:05 1.3M
20260426T12Z_MSC_CAPS_DewPointDepression_IsbL-1000_RLatLon0.03_PT010H.grib2 2026-04-26 18:05 1.3M
20260426T12Z_MSC_CAPS_DewPointDepression_IsbL-1015_RLatLon0.03_PT010H.grib2 2026-04-26 18:05 1.3M
20260426T12Z_MSC_CAPS_DewPoint_AGL-120m_RLatLon0.03_PT010H.grib2 2026-04-26 18:05 3.6M
20260426T12Z_MSC_CAPS_DewPoint_AGL-2m_RLatLon0.03_PT010H.grib2 2026-04-26 18:05 1.7M
20260426T12Z_MSC_CAPS_DewPoint_AGL-40m_RLatLon0.03_PT010H.grib2 2026-04-26 18:05 3.7M
20260426T12Z_MSC_CAPS_DewPoint_AGL-80m_RLatLon0.03_PT010H.grib2 2026-04-26 18:05 3.7M
20260426T12Z_MSC_CAPS_DownwardLongwaveRadiationFlux-Accum_Sfc_RLatLon0.03_PT010H.grib2 2026-04-26 18:05 2.2M
20260426T12Z_MSC_CAPS_DownwardShortwaveRadiationFlux-Accum_NTAtm_RLatLon0.03_PT010H.grib2 2026-04-26 18:05 474K
20260426T12Z_MSC_CAPS_DownwardShortwaveRadiationFlux-Accum_Sfc_RLatLon0.03_PT010H.grib2 2026-04-26 18:05 2.5M
20260426T12Z_MSC_CAPS_FreezingRain-Accum_Sfc_RLatLon0.03_PT010H.grib2 2026-04-26 18:05 251K
20260426T12Z_MSC_CAPS_GeopotentialHeight_IsbL-0050_RLatLon0.03_PT010H.grib2 2026-04-26 18:05 827K
20260426T12Z_MSC_CAPS_GeopotentialHeight_IsbL-0100_RLatLon0.03_PT010H.grib2 2026-04-26 18:05 814K
20260426T12Z_MSC_CAPS_GeopotentialHeight_IsbL-0150_RLatLon0.03_PT010H.grib2 2026-04-26 18:05 600K
20260426T12Z_MSC_CAPS_GeopotentialHeight_IsbL-0175_RLatLon0.03_PT010H.grib2 2026-04-26 18:05 715K
20260426T12Z_MSC_CAPS_GeopotentialHeight_IsbL-0200_RLatLon0.03_PT010H.grib2 2026-04-26 18:05 722K
20260426T12Z_MSC_CAPS_GeopotentialHeight_IsbL-0225_RLatLon0.03_PT010H.grib2 2026-04-26 18:05 733K
20260426T12Z_MSC_CAPS_GeopotentialHeight_IsbL-0250_RLatLon0.03_PT010H.grib2 2026-04-26 18:05 746K
20260426T12Z_MSC_CAPS_GeopotentialHeight_IsbL-0275_RLatLon0.03_PT010H.grib2 2026-04-26 18:05 764K
20260426T12Z_MSC_CAPS_GeopotentialHeight_IsbL-0300_RLatLon0.03_PT010H.grib2 2026-04-26 18:05 773K
20260426T12Z_MSC_CAPS_GeopotentialHeight_IsbL-0350_RLatLon0.03_PT010H.grib2 2026-04-26 18:05 777K
20260426T12Z_MSC_CAPS_GeopotentialHeight_IsbL-0400_RLatLon0.03_PT010H.grib2 2026-04-26 18:05 771K
20260426T12Z_MSC_CAPS_GeopotentialHeight_IsbL-0450_RLatLon0.03_PT010H.grib2 2026-04-26 18:05 761K
20260426T12Z_MSC_CAPS_GeopotentialHeight_IsbL-0500_RLatLon0.03_PT010H.grib2 2026-04-26 18:05 756K
20260426T12Z_MSC_CAPS_GeopotentialHeight_IsbL-0550_RLatLon0.03_PT010H.grib2 2026-04-26 18:05 635K
20260426T12Z_MSC_CAPS_GeopotentialHeight_IsbL-0600_RLatLon0.03_PT010H.grib2 2026-04-26 18:05 631K
20260426T12Z_MSC_CAPS_GeopotentialHeight_IsbL-0650_RLatLon0.03_PT010H.grib2 2026-04-26 18:05 630K
20260426T12Z_MSC_CAPS_GeopotentialHeight_IsbL-0700_RLatLon0.03_PT010H.grib2 2026-04-26 18:05 627K
20260426T12Z_MSC_CAPS_GeopotentialHeight_IsbL-0750_RLatLon0.03_PT010H.grib2 2026-04-26 18:05 625K
20260426T12Z_MSC_CAPS_GeopotentialHeight_IsbL-0800_RLatLon0.03_PT010H.grib2 2026-04-26 18:05 630K
20260426T12Z_MSC_CAPS_GeopotentialHeight_IsbL-0850_RLatLon0.03_PT010H.grib2 2026-04-26 18:05 819K
20260426T12Z_MSC_CAPS_GeopotentialHeight_IsbL-0875_RLatLon0.03_PT010H.grib2 2026-04-26 18:05 827K
20260426T12Z_MSC_CAPS_GeopotentialHeight_IsbL-0900_RLatLon0.03_PT010H.grib2 2026-04-26 18:05 834K
20260426T12Z_MSC_CAPS_GeopotentialHeight_IsbL-0925_RLatLon0.03_PT010H.grib2 2026-04-26 18:05 656K
20260426T12Z_MSC_CAPS_GeopotentialHeight_IsbL-0950_RLatLon0.03_PT010H.grib2 2026-04-26 18:05 666K
20260426T12Z_MSC_CAPS_GeopotentialHeight_IsbL-0970_RLatLon0.03_PT010H.grib2 2026-04-26 18:05 675K
20260426T12Z_MSC_CAPS_GeopotentialHeight_IsbL-0985_RLatLon0.03_PT010H.grib2 2026-04-26 18:05 681K
20260426T12Z_MSC_CAPS_GeopotentialHeight_IsbL-1000_RLatLon0.03_PT010H.grib2 2026-04-26 18:05 687K
20260426T12Z_MSC_CAPS_GeopotentialHeight_IsbL-1015_RLatLon0.03_PT010H.grib2 2026-04-26 18:05 692K
20260426T12Z_MSC_CAPS_GeopotentialHeight_Sfc_RLatLon0.03_PT010H.grib2 2026-04-26 18:05 1.0M
20260426T12Z_MSC_CAPS_IcePellets-Accum_Sfc_RLatLon0.03_PT010H.grib2 2026-04-26 18:05 15K
20260426T12Z_MSC_CAPS_LatentHeatNetFlux_Sfc_RLatLon0.03_PT010H.grib2 2026-04-26 18:05 2.0M
20260426T12Z_MSC_CAPS_LiftedIndex-MU-VT_IsbL-0500_RLatLon0.03_PT010H.grib2 2026-04-26 18:05 3.3M
20260426T12Z_MSC_CAPS_MixedLayerThickness_Sfc_RLatLon0.03_PT010H.nc 2026-04-26 18:11 17M
20260426T12Z_MSC_CAPS_NetLongwaveRadiationFlux-Accum_Sfc_RLatLon0.03_PT010H.grib2 2026-04-26 18:05 3.0M
20260426T12Z_MSC_CAPS_NetShortwaveRadiationFlux-Accum_Sfc_RLatLon0.03_PT010H.grib2 2026-04-26 18:05 2.6M
20260426T12Z_MSC_CAPS_PlanetaryBoundaryLayerHeight_Sfc_RLatLon0.03_PT010H.grib2 2026-04-26 18:05 2.9M
20260426T12Z_MSC_CAPS_Precip-Accum_Sfc_RLatLon0.03_PT010H.grib2 2026-04-26 18:05 3.4M
20260426T12Z_MSC_CAPS_PrecipRate_Sfc_RLatLon0.03_PT010H.grib2 2026-04-26 18:05 518K
20260426T12Z_MSC_CAPS_PrecipType-Instant_Sfc_RLatLon0.03_PT010H.grib2 2026-04-26 18:05 1.5M
20260426T12Z_MSC_CAPS_Pressure_MSL_RLatLon0.03_PT010H.grib2 2026-04-26 18:05 923K
20260426T12Z_MSC_CAPS_Pressure_Sfc_RLatLon0.03_PT010H.grib2 2026-04-26 18:05 1.2M
20260426T12Z_MSC_CAPS_RadiativeTemp_Sfc_RLatLon0.03_PT010H.grib2 2026-04-26 18:05 2.1M
20260426T12Z_MSC_CAPS_Rain-Accum_Sfc_RLatLon0.03_PT010H.grib2 2026-04-26 18:05 1.3M
20260426T12Z_MSC_CAPS_RelativeHumidity_AGL-120m_RLatLon0.03_PT010H.grib2 2026-04-26 18:05 2.9M
20260426T12Z_MSC_CAPS_RelativeHumidity_AGL-2m_RLatLon0.03_PT010H.grib2 2026-04-26 18:05 3.0M
20260426T12Z_MSC_CAPS_RelativeHumidity_AGL-40m_RLatLon0.03_PT010H.grib2 2026-04-26 18:05 2.9M
20260426T12Z_MSC_CAPS_RelativeHumidity_AGL-80m_RLatLon0.03_PT010H.grib2 2026-04-26 18:05 2.9M
20260426T12Z_MSC_CAPS_RelativeHumidity_IsbL-0050_RLatLon0.03_PT010H.grib2 2026-04-26 18:05 1.0M
20260426T12Z_MSC_CAPS_RelativeHumidity_IsbL-0100_RLatLon0.03_PT010H.grib2 2026-04-26 18:05 882K
20260426T12Z_MSC_CAPS_RelativeHumidity_IsbL-0150_RLatLon0.03_PT010H.grib2 2026-04-26 18:05 747K
20260426T12Z_MSC_CAPS_RelativeHumidity_IsbL-0175_RLatLon0.03_PT010H.grib2 2026-04-26 18:05 494K
20260426T12Z_MSC_CAPS_RelativeHumidity_IsbL-0200_RLatLon0.03_PT010H.grib2 2026-04-26 18:05 652K
20260426T12Z_MSC_CAPS_RelativeHumidity_IsbL-0225_RLatLon0.03_PT010H.grib2 2026-04-26 18:05 857K
20260426T12Z_MSC_CAPS_RelativeHumidity_IsbL-0250_RLatLon0.03_PT010H.grib2 2026-04-26 18:05 1.1M
20260426T12Z_MSC_CAPS_RelativeHumidity_IsbL-0275_RLatLon0.03_PT010H.grib2 2026-04-26 18:05 1.4M
20260426T12Z_MSC_CAPS_RelativeHumidity_IsbL-0300_RLatLon0.03_PT010H.grib2 2026-04-26 18:05 1.7M
20260426T12Z_MSC_CAPS_RelativeHumidity_IsbL-0350_RLatLon0.03_PT010H.grib2 2026-04-26 18:05 1.9M
20260426T12Z_MSC_CAPS_RelativeHumidity_IsbL-0400_RLatLon0.03_PT010H.grib2 2026-04-26 18:05 2.1M
20260426T12Z_MSC_CAPS_RelativeHumidity_IsbL-0450_RLatLon0.03_PT010H.grib2 2026-04-26 18:05 2.0M
20260426T12Z_MSC_CAPS_RelativeHumidity_IsbL-0500_RLatLon0.03_PT010H.grib2 2026-04-26 18:05 1.9M
20260426T12Z_MSC_CAPS_RelativeHumidity_IsbL-0550_RLatLon0.03_PT010H.grib2 2026-04-26 18:05 2.1M
20260426T12Z_MSC_CAPS_RelativeHumidity_IsbL-0600_RLatLon0.03_PT010H.grib2 2026-04-26 18:05 2.1M
20260426T12Z_MSC_CAPS_RelativeHumidity_IsbL-0650_RLatLon0.03_PT010H.grib2 2026-04-26 18:05 2.2M
20260426T12Z_MSC_CAPS_RelativeHumidity_IsbL-0700_RLatLon0.03_PT010H.grib2 2026-04-26 18:05 2.2M
20260426T12Z_MSC_CAPS_RelativeHumidity_IsbL-0750_RLatLon0.03_PT010H.grib2 2026-04-26 18:05 2.3M
20260426T12Z_MSC_CAPS_RelativeHumidity_IsbL-0800_RLatLon0.03_PT010H.grib2 2026-04-26 18:05 2.3M
20260426T12Z_MSC_CAPS_RelativeHumidity_IsbL-0850_RLatLon0.03_PT010H.grib2 2026-04-26 18:05 2.4M
20260426T12Z_MSC_CAPS_RelativeHumidity_IsbL-0875_RLatLon0.03_PT010H.grib2 2026-04-26 18:05 2.6M
20260426T12Z_MSC_CAPS_RelativeHumidity_IsbL-0900_RLatLon0.03_PT010H.grib2 2026-04-26 18:05 2.6M
20260426T12Z_MSC_CAPS_RelativeHumidity_IsbL-0925_RLatLon0.03_PT010H.grib2 2026-04-26 18:05 2.6M
20260426T12Z_MSC_CAPS_RelativeHumidity_IsbL-0950_RLatLon0.03_PT010H.grib2 2026-04-26 18:05 2.7M
20260426T12Z_MSC_CAPS_RelativeHumidity_IsbL-0970_RLatLon0.03_PT010H.grib2 2026-04-26 18:05 2.8M
20260426T12Z_MSC_CAPS_RelativeHumidity_IsbL-0985_RLatLon0.03_PT010H.grib2 2026-04-26 18:05 2.8M
20260426T12Z_MSC_CAPS_RelativeHumidity_IsbL-1000_RLatLon0.03_PT010H.grib2 2026-04-26 18:05 2.9M
20260426T12Z_MSC_CAPS_RelativeHumidity_IsbL-1015_RLatLon0.03_PT010H.grib2 2026-04-26 18:05 2.9M
20260426T12Z_MSC_CAPS_Runoff-Accum_Sfc_RLatLon0.03_PT010H.grib2 2026-04-26 18:05 248K
20260426T12Z_MSC_CAPS_SeaIceAreaFraction_Sfc_RLatLon0.03_PT010H.nc 2026-04-26 18:11 15M
20260426T12Z_MSC_CAPS_SeaIceCompressiveStrength_Sfc_RLatLon0.03_PT010H.nc 2026-04-26 18:11 15M
20260426T12Z_MSC_CAPS_SeaIceDivergence_Sfc_RLatLon0.03_PT010H.nc 2026-04-26 18:11 14M
20260426T12Z_MSC_CAPS_SeaIceInternalPressure_Sfc_RLatLon0.03_PT010H.nc 2026-04-26 18:11 15M
20260426T12Z_MSC_CAPS_SeaIceShear_Sfc_RLatLon0.03_PT010H.nc 2026-04-26 18:11 15M
20260426T12Z_MSC_CAPS_SeaIceSnowTemp_Sfc_RLatLon0.03_PT010H.nc 2026-04-26 18:11 15M
20260426T12Z_MSC_CAPS_SeaIceSnowVolume_Sfc_RLatLon0.03_PT010H.nc 2026-04-26 18:11 15M
20260426T12Z_MSC_CAPS_SeaIceVelocityX_Sfc_RLatLon0.03_PT010H.nc 2026-04-26 18:11 15M
20260426T12Z_MSC_CAPS_SeaIceVelocityY_Sfc_RLatLon0.03_PT010H.nc 2026-04-26 18:11 15M
20260426T12Z_MSC_CAPS_SeaIceVolume_Sfc_RLatLon0.03_PT010H.nc 2026-04-26 18:11 15M
20260426T12Z_MSC_CAPS_SeaSurfaceHeight_Sfc_RLatLon0.03_PT010H.nc 2026-04-26 18:11 16M
20260426T12Z_MSC_CAPS_SeaWaterSalinity_DBS-0.5m_RLatLon0.03_PT010H.nc 2026-04-26 18:11 16M
20260426T12Z_MSC_CAPS_SeaWaterSalinity_DBS-all_RLatLon0.03_PT010H.nc 2026-04-26 18:11 107M
20260426T12Z_MSC_CAPS_SeaWaterTemp_DBS-0.5m_RLatLon0.03_PT010H.nc 2026-04-26 18:11 14M
20260426T12Z_MSC_CAPS_SeaWaterTemp_DBS-all_RLatLon0.03_PT010H.nc 2026-04-26 18:11 87M
20260426T12Z_MSC_CAPS_SeaWaterVelocityX_DBS-0.5m_RLatLon0.03_PT010H.nc 2026-04-26 18:11 17M
20260426T12Z_MSC_CAPS_SeaWaterVelocityX_DBS-all_RLatLon0.03_PT010H.nc 2026-04-26 18:11 211M
20260426T12Z_MSC_CAPS_SeaWaterVelocityY_DBS-0.5m_RLatLon0.03_PT010H.nc 2026-04-26 18:11 18M
20260426T12Z_MSC_CAPS_SeaWaterVelocityY_DBS-all_RLatLon0.03_PT010H.nc 2026-04-26 18:11 218M
20260426T12Z_MSC_CAPS_SensibleHeatNetFlux_Sfc_RLatLon0.03_PT010H.grib2 2026-04-26 18:05 2.3M
20260426T12Z_MSC_CAPS_ShowalterIndex_IsbL-0500_RLatLon0.03_PT010H.grib2 2026-04-26 18:05 4.3M
20260426T12Z_MSC_CAPS_Snow-Accum_Sfc_RLatLon0.03_PT010H.grib2 2026-04-26 18:05 2.7M
20260426T12Z_MSC_CAPS_SnowDensity_Sfc_RLatLon0.03_PT010H.grib2 2026-04-26 18:05 1.2M
20260426T12Z_MSC_CAPS_SnowDepthWaterEquivalent_Sfc_RLatLon0.03_PT010H.grib2 2026-04-26 18:05 717K
20260426T12Z_MSC_CAPS_SnowDepth_Sfc_RLatLon0.03_PT010H.grib2 2026-04-26 18:05 1.2M
20260426T12Z_MSC_CAPS_SoilTemp_DBS-0to10cm_RLatLon0.03_PT010H.grib2 2026-04-26 18:05 1.5M
20260426T12Z_MSC_CAPS_SoilTemp_Sfc_RLatLon0.03_PT010H.grib2 2026-04-26 18:05 1.8M
20260426T12Z_MSC_CAPS_SoilVolumetricIceContent_Sfc_RLatLon0.03_PT010H.grib2 2026-04-26 18:05 1.4M
20260426T12Z_MSC_CAPS_SoilVolumetricWaterContent_DBS-0to10cm_RLatLon0.03_PT010H.grib2 2026-04-26 18:05 1.1M
20260426T12Z_MSC_CAPS_SoilVolumetricWaterContent_DBS-0to1cm_RLatLon0.03_PT010H.grib2 2026-04-26 18:05 1.7M
20260426T12Z_MSC_CAPS_SpecificHumidity_AGL-120m_RLatLon0.03_PT010H.grib2 2026-04-26 18:05 1.7M
20260426T12Z_MSC_CAPS_SpecificHumidity_AGL-2m_RLatLon0.03_PT010H.grib2 2026-04-26 18:05 2.0M
20260426T12Z_MSC_CAPS_SpecificHumidity_AGL-40m_RLatLon0.03_PT010H.grib2 2026-04-26 18:05 1.8M
20260426T12Z_MSC_CAPS_SpecificHumidity_AGL-80m_RLatLon0.03_PT010H.grib2 2026-04-26 18:05 1.8M
20260426T12Z_MSC_CAPS_SpecificHumidity_IsbL-0050_RLatLon0.03_PT010H.grib2 2026-04-26 18:05 892K
20260426T12Z_MSC_CAPS_SpecificHumidity_IsbL-0100_RLatLon0.03_PT010H.grib2 2026-04-26 18:05 1.0M
20260426T12Z_MSC_CAPS_SpecificHumidity_IsbL-0150_RLatLon0.03_PT010H.grib2 2026-04-26 18:05 858K
20260426T12Z_MSC_CAPS_SpecificHumidity_IsbL-0175_RLatLon0.03_PT010H.grib2 2026-04-26 18:05 1.0M
20260426T12Z_MSC_CAPS_SpecificHumidity_IsbL-0200_RLatLon0.03_PT010H.grib2 2026-04-26 18:05 846K
20260426T12Z_MSC_CAPS_SpecificHumidity_IsbL-0225_RLatLon0.03_PT010H.grib2 2026-04-26 18:05 1.0M
20260426T12Z_MSC_CAPS_SpecificHumidity_IsbL-0250_RLatLon0.03_PT010H.grib2 2026-04-26 18:05 1.0M
20260426T12Z_MSC_CAPS_SpecificHumidity_IsbL-0275_RLatLon0.03_PT010H.grib2 2026-04-26 18:05 1.0M
20260426T12Z_MSC_CAPS_SpecificHumidity_IsbL-0300_RLatLon0.03_PT010H.grib2 2026-04-26 18:05 1.0M
20260426T12Z_MSC_CAPS_SpecificHumidity_IsbL-0350_RLatLon0.03_PT010H.grib2 2026-04-26 18:05 933K
20260426T12Z_MSC_CAPS_SpecificHumidity_IsbL-0400_RLatLon0.03_PT010H.grib2 2026-04-26 18:05 932K
20260426T12Z_MSC_CAPS_SpecificHumidity_IsbL-0450_RLatLon0.03_PT010H.grib2 2026-04-26 18:05 1.1M
20260426T12Z_MSC_CAPS_SpecificHumidity_IsbL-0500_RLatLon0.03_PT010H.grib2 2026-04-26 18:05 1.2M
20260426T12Z_MSC_CAPS_SpecificHumidity_IsbL-0550_RLatLon0.03_PT010H.grib2 2026-04-26 18:05 1.2M
20260426T12Z_MSC_CAPS_SpecificHumidity_IsbL-0600_RLatLon0.03_PT010H.grib2 2026-04-26 18:05 1.3M
20260426T12Z_MSC_CAPS_SpecificHumidity_IsbL-0650_RLatLon0.03_PT010H.grib2 2026-04-26 18:05 1.5M
20260426T12Z_MSC_CAPS_SpecificHumidity_IsbL-0700_RLatLon0.03_PT010H.grib2 2026-04-26 18:05 1.5M
20260426T12Z_MSC_CAPS_SpecificHumidity_IsbL-0750_RLatLon0.03_PT010H.grib2 2026-04-26 18:05 1.3M
20260426T12Z_MSC_CAPS_SpecificHumidity_IsbL-0800_RLatLon0.03_PT010H.grib2 2026-04-26 18:05 1.4M
20260426T12Z_MSC_CAPS_SpecificHumidity_IsbL-0850_RLatLon0.03_PT010H.grib2 2026-04-26 18:05 1.5M
20260426T12Z_MSC_CAPS_SpecificHumidity_IsbL-0875_RLatLon0.03_PT010H.grib2 2026-04-26 18:05 1.7M
20260426T12Z_MSC_CAPS_SpecificHumidity_IsbL-0900_RLatLon0.03_PT010H.grib2 2026-04-26 18:05 1.7M
20260426T12Z_MSC_CAPS_SpecificHumidity_IsbL-0925_RLatLon0.03_PT010H.grib2 2026-04-26 18:05 1.8M
20260426T12Z_MSC_CAPS_SpecificHumidity_IsbL-0950_RLatLon0.03_PT010H.grib2 2026-04-26 18:05 1.8M
20260426T12Z_MSC_CAPS_SpecificHumidity_IsbL-0970_RLatLon0.03_PT010H.grib2 2026-04-26 18:05 1.9M
20260426T12Z_MSC_CAPS_SpecificHumidity_IsbL-0985_RLatLon0.03_PT010H.grib2 2026-04-26 18:05 1.9M
20260426T12Z_MSC_CAPS_SpecificHumidity_IsbL-1000_RLatLon0.03_PT010H.grib2 2026-04-26 18:05 2.0M
20260426T12Z_MSC_CAPS_SpecificHumidity_IsbL-1015_RLatLon0.03_PT010H.grib2 2026-04-26 18:05 2.0M
20260426T12Z_MSC_CAPS_SpecificHumidity_Sfc_RLatLon0.03_PT010H.grib2 2026-04-26 18:05 2.0M
20260426T12Z_MSC_CAPS_StormRelativeHelicity_Sfc_RLatLon0.03_PT010H.grib2 2026-04-26 18:05 2.7M
20260426T12Z_MSC_CAPS_Thickness_IsbL-1000to0500_RLatLon0.03_PT010H.grib2 2026-04-26 18:05 426K
20260426T12Z_MSC_CAPS_TotalCloudCover_Sfc_RLatLon0.03_PT010H.grib2 2026-04-26 18:05 3.5M
20260426T12Z_MSC_CAPS_TurboclineDepth_Sfc_RLatLon0.03_PT010H.nc 2026-04-26 18:11 16M
20260426T12Z_MSC_CAPS_UpwardLongwaveRadiationFlux_NTAtm_RLatLon0.03_PT010H.grib2 2026-04-26 18:05 2.9M
20260426T12Z_MSC_CAPS_UpwardShortwaveRadiationFlux_NTAtm_RLatLon0.03_PT010H.grib2 2026-04-26 18:05 2.3M
20260426T12Z_MSC_CAPS_VerticalVelocity_IsbL-0250_RLatLon0.03_PT010H.grib2 2026-04-26 18:05 1.0M
20260426T12Z_MSC_CAPS_VerticalVelocity_IsbL-0500_RLatLon0.03_PT010H.grib2 2026-04-26 18:05 1.0M
20260426T12Z_MSC_CAPS_VerticalVelocity_IsbL-0700_RLatLon0.03_PT010H.grib2 2026-04-26 18:05 1.1M
20260426T12Z_MSC_CAPS_VerticalVelocity_IsbL-0850_RLatLon0.03_PT010H.grib2 2026-04-26 18:05 1.1M
20260426T12Z_MSC_CAPS_VerticalVelocity_IsbL-1000_RLatLon0.03_PT010H.grib2 2026-04-26 18:05 1.1M
20260426T12Z_MSC_CAPS_WindDir_AGL-10m_RLatLon0.03_PT010H.grib2 2026-04-26 18:05 2.4M
20260426T12Z_MSC_CAPS_WindDir_AGL-120m_RLatLon0.03_PT010H.grib2 2026-04-26 18:05 1.3M
20260426T12Z_MSC_CAPS_WindDir_AGL-40m_RLatLon0.03_PT010H.grib2 2026-04-26 18:05 1.4M
20260426T12Z_MSC_CAPS_WindDir_AGL-80m_RLatLon0.03_PT010H.grib2 2026-04-26 18:05 1.3M
20260426T12Z_MSC_CAPS_WindDir_IsbL-0050_RLatLon0.03_PT010H.grib2 2026-04-26 18:05 1.0M
20260426T12Z_MSC_CAPS_WindDir_IsbL-0100_RLatLon0.03_PT010H.grib2 2026-04-26 18:05 1.0M
20260426T12Z_MSC_CAPS_WindDir_IsbL-0150_RLatLon0.03_PT010H.grib2 2026-04-26 18:05 1.1M
20260426T12Z_MSC_CAPS_WindDir_IsbL-0175_RLatLon0.03_PT010H.grib2 2026-04-26 18:05 1.0M
20260426T12Z_MSC_CAPS_WindDir_IsbL-0200_RLatLon0.03_PT010H.grib2 2026-04-26 18:05 1.2M
20260426T12Z_MSC_CAPS_WindDir_IsbL-0225_RLatLon0.03_PT010H.grib2 2026-04-26 18:05 1.1M
20260426T12Z_MSC_CAPS_WindDir_IsbL-0250_RLatLon0.03_PT010H.grib2 2026-04-26 18:05 1.1M
20260426T12Z_MSC_CAPS_WindDir_IsbL-0275_RLatLon0.03_PT010H.grib2 2026-04-26 18:05 1.1M
20260426T12Z_MSC_CAPS_WindDir_IsbL-0300_RLatLon0.03_PT010H.grib2 2026-04-26 18:05 1.1M
20260426T12Z_MSC_CAPS_WindDir_IsbL-0350_RLatLon0.03_PT010H.grib2 2026-04-26 18:05 1.1M
20260426T12Z_MSC_CAPS_WindDir_IsbL-0400_RLatLon0.03_PT010H.grib2 2026-04-26 18:05 1.2M
20260426T12Z_MSC_CAPS_WindDir_IsbL-0450_RLatLon0.03_PT010H.grib2 2026-04-26 18:05 1.2M
20260426T12Z_MSC_CAPS_WindDir_IsbL-0500_RLatLon0.03_PT010H.grib2 2026-04-26 18:05 1.2M
20260426T12Z_MSC_CAPS_WindDir_IsbL-0550_RLatLon0.03_PT010H.grib2 2026-04-26 18:05 1.3M
20260426T12Z_MSC_CAPS_WindDir_IsbL-0600_RLatLon0.03_PT010H.grib2 2026-04-26 18:05 1.3M
20260426T12Z_MSC_CAPS_WindDir_IsbL-0650_RLatLon0.03_PT010H.grib2 2026-04-26 18:05 1.3M
20260426T12Z_MSC_CAPS_WindDir_IsbL-0700_RLatLon0.03_PT010H.grib2 2026-04-26 18:05 1.4M
20260426T12Z_MSC_CAPS_WindDir_IsbL-0750_RLatLon0.03_PT010H.grib2 2026-04-26 18:05 1.5M
20260426T12Z_MSC_CAPS_WindDir_IsbL-0800_RLatLon0.03_PT010H.grib2 2026-04-26 18:05 1.6M
20260426T12Z_MSC_CAPS_WindDir_IsbL-0850_RLatLon0.03_PT010H.grib2 2026-04-26 18:05 1.8M
20260426T12Z_MSC_CAPS_WindDir_IsbL-0875_RLatLon0.03_PT010H.grib2 2026-04-26 18:05 1.8M
20260426T12Z_MSC_CAPS_WindDir_IsbL-0900_RLatLon0.03_PT010H.grib2 2026-04-26 18:05 1.9M
20260426T12Z_MSC_CAPS_WindDir_IsbL-0925_RLatLon0.03_PT010H.grib2 2026-04-26 18:05 2.0M
20260426T12Z_MSC_CAPS_WindDir_IsbL-0950_RLatLon0.03_PT010H.grib2 2026-04-26 18:05 2.1M
20260426T12Z_MSC_CAPS_WindDir_IsbL-0970_RLatLon0.03_PT010H.grib2 2026-04-26 18:05 2.1M
20260426T12Z_MSC_CAPS_WindDir_IsbL-0985_RLatLon0.03_PT010H.grib2 2026-04-26 18:05 2.2M
20260426T12Z_MSC_CAPS_WindDir_IsbL-1000_RLatLon0.03_PT010H.grib2 2026-04-26 18:05 2.3M
20260426T12Z_MSC_CAPS_WindDir_IsbL-1015_RLatLon0.03_PT010H.grib2 2026-04-26 18:05 2.4M
20260426T12Z_MSC_CAPS_WindGust-Max_AGL-10m_RLatLon0.03_PT010H.grib2 2026-04-26 18:05 2.4M
20260426T12Z_MSC_CAPS_WindGust-Min_AGL-10m_RLatLon0.03_PT010H.grib2 2026-04-26 18:05 2.5M
20260426T12Z_MSC_CAPS_WindGust_AGL-10m_RLatLon0.03_PT010H.grib2 2026-04-26 18:05 2.4M
20260426T12Z_MSC_CAPS_WindSpeed_AGL-10m_RLatLon0.03_PT010H.grib2 2026-04-26 18:05 2.1M
20260426T12Z_MSC_CAPS_WindSpeed_AGL-120m_RLatLon0.03_PT010H.grib2 2026-04-26 18:05 1.2M
20260426T12Z_MSC_CAPS_WindSpeed_AGL-40m_RLatLon0.03_PT010H.grib2 2026-04-26 18:05 1.3M
20260426T12Z_MSC_CAPS_WindSpeed_AGL-80m_RLatLon0.03_PT010H.grib2 2026-04-26 18:05 1.2M
20260426T12Z_MSC_CAPS_WindSpeed_IsbL-0050_RLatLon0.03_PT010H.grib2 2026-04-26 18:05 1.2M
20260426T12Z_MSC_CAPS_WindSpeed_IsbL-0100_RLatLon0.03_PT010H.grib2 2026-04-26 18:05 1.1M
20260426T12Z_MSC_CAPS_WindSpeed_IsbL-0150_RLatLon0.03_PT010H.grib2 2026-04-26 18:05 1.0M
20260426T12Z_MSC_CAPS_WindSpeed_IsbL-0175_RLatLon0.03_PT010H.grib2 2026-04-26 18:05 1.1M
20260426T12Z_MSC_CAPS_WindSpeed_IsbL-0200_RLatLon0.03_PT010H.grib2 2026-04-26 18:05 1.2M
20260426T12Z_MSC_CAPS_WindSpeed_IsbL-0225_RLatLon0.03_PT010H.grib2 2026-04-26 18:05 940K
20260426T12Z_MSC_CAPS_WindSpeed_IsbL-0250_RLatLon0.03_PT010H.grib2 2026-04-26 18:05 962K
20260426T12Z_MSC_CAPS_WindSpeed_IsbL-0275_RLatLon0.03_PT010H.grib2 2026-04-26 18:05 1.0M
20260426T12Z_MSC_CAPS_WindSpeed_IsbL-0300_RLatLon0.03_PT010H.grib2 2026-04-26 18:05 1.0M
20260426T12Z_MSC_CAPS_WindSpeed_IsbL-0350_RLatLon0.03_PT010H.grib2 2026-04-26 18:05 1.0M
20260426T12Z_MSC_CAPS_WindSpeed_IsbL-0400_RLatLon0.03_PT010H.grib2 2026-04-26 18:05 1.0M
20260426T12Z_MSC_CAPS_WindSpeed_IsbL-0450_RLatLon0.03_PT010H.grib2 2026-04-26 18:05 1.0M
20260426T12Z_MSC_CAPS_WindSpeed_IsbL-0500_RLatLon0.03_PT010H.grib2 2026-04-26 18:05 1.3M
20260426T12Z_MSC_CAPS_WindSpeed_IsbL-0550_RLatLon0.03_PT010H.grib2 2026-04-26 18:05 1.5M
20260426T12Z_MSC_CAPS_WindSpeed_IsbL-0600_RLatLon0.03_PT010H.grib2 2026-04-26 18:05 1.5M
20260426T12Z_MSC_CAPS_WindSpeed_IsbL-0650_RLatLon0.03_PT010H.grib2 2026-04-26 18:05 1.4M
20260426T12Z_MSC_CAPS_WindSpeed_IsbL-0700_RLatLon0.03_PT010H.grib2 2026-04-26 18:05 1.4M
20260426T12Z_MSC_CAPS_WindSpeed_IsbL-0750_RLatLon0.03_PT010H.grib2 2026-04-26 18:05 1.5M
20260426T12Z_MSC_CAPS_WindSpeed_IsbL-0800_RLatLon0.03_PT010H.grib2 2026-04-26 18:05 1.6M
20260426T12Z_MSC_CAPS_WindSpeed_IsbL-0850_RLatLon0.03_PT010H.grib2 2026-04-26 18:05 1.7M
20260426T12Z_MSC_CAPS_WindSpeed_IsbL-0875_RLatLon0.03_PT010H.grib2 2026-04-26 18:05 1.7M
20260426T12Z_MSC_CAPS_WindSpeed_IsbL-0900_RLatLon0.03_PT010H.grib2 2026-04-26 18:05 1.7M
20260426T12Z_MSC_CAPS_WindSpeed_IsbL-0925_RLatLon0.03_PT010H.grib2 2026-04-26 18:05 1.8M
20260426T12Z_MSC_CAPS_WindSpeed_IsbL-0950_RLatLon0.03_PT010H.grib2 2026-04-26 18:05 1.8M
20260426T12Z_MSC_CAPS_WindSpeed_IsbL-0970_RLatLon0.03_PT010H.grib2 2026-04-26 18:05 1.8M
20260426T12Z_MSC_CAPS_WindSpeed_IsbL-0985_RLatLon0.03_PT010H.grib2 2026-04-26 18:05 2.0M
20260426T12Z_MSC_CAPS_WindSpeed_IsbL-1000_RLatLon0.03_PT010H.grib2 2026-04-26 18:05 2.1M
20260426T12Z_MSC_CAPS_WindSpeed_IsbL-1015_RLatLon0.03_PT010H.grib2 2026-04-26 18:05 2.1M
20260426T12Z_MSC_CAPS_WindU_AGL-10m_RLatLon0.03_PT010H.grib2 2026-04-26 18:05 2.0M
20260426T12Z_MSC_CAPS_WindU_AGL-120m_RLatLon0.03_PT010H.grib2 2026-04-26 18:05 1.2M
20260426T12Z_MSC_CAPS_WindU_AGL-40m_RLatLon0.03_PT010H.grib2 2026-04-26 18:05 1.2M
20260426T12Z_MSC_CAPS_WindU_AGL-80m_RLatLon0.03_PT010H.grib2 2026-04-26 18:05 1.2M
20260426T12Z_MSC_CAPS_WindU_IsbL-0050_RLatLon0.03_PT010H.grib2 2026-04-26 18:05 943K
20260426T12Z_MSC_CAPS_WindU_IsbL-0100_RLatLon0.03_PT010H.grib2 2026-04-26 18:05 785K
20260426T12Z_MSC_CAPS_WindU_IsbL-0150_RLatLon0.03_PT010H.grib2 2026-04-26 18:05 910K
20260426T12Z_MSC_CAPS_WindU_IsbL-0175_RLatLon0.03_PT010H.grib2 2026-04-26 18:05 717K
20260426T12Z_MSC_CAPS_WindU_IsbL-0200_RLatLon0.03_PT010H.grib2 2026-04-26 18:05 862K
20260426T12Z_MSC_CAPS_WindU_IsbL-0225_RLatLon0.03_PT010H.grib2 2026-04-26 18:05 879K
20260426T12Z_MSC_CAPS_WindU_IsbL-0250_RLatLon0.03_PT010H.grib2 2026-04-26 18:05 694K
20260426T12Z_MSC_CAPS_WindU_IsbL-0275_RLatLon0.03_PT010H.grib2 2026-04-26 18:05 706K
20260426T12Z_MSC_CAPS_WindU_IsbL-0300_RLatLon0.03_PT010H.grib2 2026-04-26 18:05 716K
20260426T12Z_MSC_CAPS_WindU_IsbL-0350_RLatLon0.03_PT010H.grib2 2026-04-26 18:05 726K
20260426T12Z_MSC_CAPS_WindU_IsbL-0400_RLatLon0.03_PT010H.grib2 2026-04-26 18:05 729K
20260426T12Z_MSC_CAPS_WindU_IsbL-0450_RLatLon0.03_PT010H.grib2 2026-04-26 18:05 957K
20260426T12Z_MSC_CAPS_WindU_IsbL-0500_RLatLon0.03_PT010H.grib2 2026-04-26 18:05 1.0M
20260426T12Z_MSC_CAPS_WindU_IsbL-0550_RLatLon0.03_PT010H.grib2 2026-04-26 18:05 1.0M
20260426T12Z_MSC_CAPS_WindU_IsbL-0600_RLatLon0.03_PT010H.grib2 2026-04-26 18:05 1.0M
20260426T12Z_MSC_CAPS_WindU_IsbL-0650_RLatLon0.03_PT010H.grib2 2026-04-26 18:05 958K
20260426T12Z_MSC_CAPS_WindU_IsbL-0700_RLatLon0.03_PT010H.grib2 2026-04-26 18:05 1.0M
20260426T12Z_MSC_CAPS_WindU_IsbL-0750_RLatLon0.03_PT010H.grib2 2026-04-26 18:05 1.0M
20260426T12Z_MSC_CAPS_WindU_IsbL-0800_RLatLon0.03_PT010H.grib2 2026-04-26 18:05 1.1M
20260426T12Z_MSC_CAPS_WindU_IsbL-0850_RLatLon0.03_PT010H.grib2 2026-04-26 18:05 1.2M
20260426T12Z_MSC_CAPS_WindU_IsbL-0875_RLatLon0.03_PT010H.grib2 2026-04-26 18:05 1.2M
20260426T12Z_MSC_CAPS_WindU_IsbL-0900_RLatLon0.03_PT010H.grib2 2026-04-26 18:05 1.3M
20260426T12Z_MSC_CAPS_WindU_IsbL-0925_RLatLon0.03_PT010H.grib2 2026-04-26 18:05 1.3M
20260426T12Z_MSC_CAPS_WindU_IsbL-0950_RLatLon0.03_PT010H.grib2 2026-04-26 18:05 1.3M
20260426T12Z_MSC_CAPS_WindU_IsbL-0970_RLatLon0.03_PT010H.grib2 2026-04-26 18:05 1.4M
20260426T12Z_MSC_CAPS_WindU_IsbL-0985_RLatLon0.03_PT010H.grib2 2026-04-26 18:05 1.8M
20260426T12Z_MSC_CAPS_WindU_IsbL-1000_RLatLon0.03_PT010H.grib2 2026-04-26 18:05 1.8M
20260426T12Z_MSC_CAPS_WindU_IsbL-1015_RLatLon0.03_PT010H.grib2 2026-04-26 18:05 2.0M
20260426T12Z_MSC_CAPS_WindV_AGL-10m_RLatLon0.03_PT010H.grib2 2026-04-26 18:05 1.9M
20260426T12Z_MSC_CAPS_WindV_AGL-120m_RLatLon0.03_PT010H.grib2 2026-04-26 18:05 901K
20260426T12Z_MSC_CAPS_WindV_AGL-40m_RLatLon0.03_PT010H.grib2 2026-04-26 18:05 1.2M
20260426T12Z_MSC_CAPS_WindV_AGL-80m_RLatLon0.03_PT010H.grib2 2026-04-26 18:05 902K
20260426T12Z_MSC_CAPS_WindV_IsbL-0050_RLatLon0.03_PT010H.grib2 2026-04-26 18:05 769K
20260426T12Z_MSC_CAPS_WindV_IsbL-0100_RLatLon0.03_PT010H.grib2 2026-04-26 18:05 785K
20260426T12Z_MSC_CAPS_WindV_IsbL-0150_RLatLon0.03_PT010H.grib2 2026-04-26 18:05 910K
20260426T12Z_MSC_CAPS_WindV_IsbL-0175_RLatLon0.03_PT010H.grib2 2026-04-26 18:05 718K
20260426T12Z_MSC_CAPS_WindV_IsbL-0200_RLatLon0.03_PT010H.grib2 2026-04-26 18:05 860K
20260426T12Z_MSC_CAPS_WindV_IsbL-0225_RLatLon0.03_PT010H.grib2 2026-04-26 18:05 879K
20260426T12Z_MSC_CAPS_WindV_IsbL-0250_RLatLon0.03_PT010H.grib2 2026-04-26 18:05 902K
20260426T12Z_MSC_CAPS_WindV_IsbL-0275_RLatLon0.03_PT010H.grib2 2026-04-26 18:05 703K
20260426T12Z_MSC_CAPS_WindV_IsbL-0300_RLatLon0.03_PT010H.grib2 2026-04-26 18:05 711K
20260426T12Z_MSC_CAPS_WindV_IsbL-0350_RLatLon0.03_PT010H.grib2 2026-04-26 18:05 935K
20260426T12Z_MSC_CAPS_WindV_IsbL-0400_RLatLon0.03_PT010H.grib2 2026-04-26 18:05 943K
20260426T12Z_MSC_CAPS_WindV_IsbL-0450_RLatLon0.03_PT010H.grib2 2026-04-26 18:05 957K
20260426T12Z_MSC_CAPS_WindV_IsbL-0500_RLatLon0.03_PT010H.grib2 2026-04-26 18:05 862K
20260426T12Z_MSC_CAPS_WindV_IsbL-0550_RLatLon0.03_PT010H.grib2 2026-04-26 18:05 895K
20260426T12Z_MSC_CAPS_WindV_IsbL-0600_RLatLon0.03_PT010H.grib2 2026-04-26 18:05 919K
20260426T12Z_MSC_CAPS_WindV_IsbL-0650_RLatLon0.03_PT010H.grib2 2026-04-26 18:05 1.2M
20260426T12Z_MSC_CAPS_WindV_IsbL-0700_RLatLon0.03_PT010H.grib2 2026-04-26 18:05 1.0M
20260426T12Z_MSC_CAPS_WindV_IsbL-0750_RLatLon0.03_PT010H.grib2 2026-04-26 18:05 1.0M
20260426T12Z_MSC_CAPS_WindV_IsbL-0800_RLatLon0.03_PT010H.grib2 2026-04-26 18:05 1.1M
20260426T12Z_MSC_CAPS_WindV_IsbL-0850_RLatLon0.03_PT010H.grib2 2026-04-26 18:05 1.2M
20260426T12Z_MSC_CAPS_WindV_IsbL-0875_RLatLon0.03_PT010H.grib2 2026-04-26 18:05 1.2M
20260426T12Z_MSC_CAPS_WindV_IsbL-0900_RLatLon0.03_PT010H.grib2 2026-04-26 18:05 1.2M
20260426T12Z_MSC_CAPS_WindV_IsbL-0925_RLatLon0.03_PT010H.grib2 2026-04-26 18:05 1.4M
20260426T12Z_MSC_CAPS_WindV_IsbL-0950_RLatLon0.03_PT010H.grib2 2026-04-26 18:05 1.4M
20260426T12Z_MSC_CAPS_WindV_IsbL-0970_RLatLon0.03_PT010H.grib2 2026-04-26 18:05 1.4M
20260426T12Z_MSC_CAPS_WindV_IsbL-0985_RLatLon0.03_PT010H.grib2 2026-04-26 18:05 1.4M
20260426T12Z_MSC_CAPS_WindV_IsbL-1000_RLatLon0.03_PT010H.grib2 2026-04-26 18:05 1.5M
20260426T12Z_MSC_CAPS_WindV_IsbL-1015_RLatLon0.03_PT010H.grib2 2026-04-26 18:05 1.9M